Weather History for KLBL - August, 2013

Change the Weather History Date:

Monday, August 12, 2013

  Actual Average Record
Temperature  
Mean Temperature 76 °F -  
Max Temperature 89 °F 93 °F 105 °F (1969)
Min Temperature 64 °F 63 °F 52 °F (1977)
Cooling Degree Days 12    
Growing Degree Days 26 (Base 50)    
Moisture  
Dew Point 61 °F    
Average Humidity 65    
Maximum Humidity 88    
Minimum Humidity 38    
Precipitation  
Precipitation 0.00 in - - ()
Sea Level Pressure  
Sea Level Pressure 30.08 in    
Wind  
Wind Speed 10 mph (WSW)    
Max Wind Speed 22 mph    
Max Gust Speed 31 mph    
Visibility 10 miles    
Events      
Averages and records for this station are not official NWS values.
T = Trace of Precipitation, MM = Missing Value Source: NWS Daily Summary

Daily Weather History Graph

Daily Weather History Graph

Search for Another Location

Airport or City:

Trip Planner

Search our weather history database for the weather conditions in past years. The results will help you decide how hot, cold, wet, or windy it might be!

Date:

Astronomy

Aug. 12, 2013 Rise Set
Actual Time 6:58 AM CDT 8:38 PM CDT
Civil Twilight 6:30 AM CDT 9:06 PM CDT
Nautical Twilight 5:56 AM CDT 9:39 PM CDT
Astronomical Twilight 5:21 AM CDT 10:15 PM CDT
Moon 12:41 PM CDT (8/12) 11:43 PM CDT (8/12)
Length of Visible Light 14h 36m
Length of Day
13h 40m
Waxing Crescent, 31% of the Moon is Illuminated
Aug 12
Waxing Crescent
Aug 14
First Quarter
Aug 20
Full
Aug 28
Last Quarter
Sep 5
New

Hourly Weather History & Observations

Time (CDT) Temp. Heat Index Dew Point Humidity Pressure Visibility Wind Dir Wind Speed Gust Speed Precip Events Conditions
12:15 AM 71.6 °F - 60.8 °F 69% 30.11 in 10.0 mi SSW 11.5 mph - N/A   Partly Cloudy
12:35 AM 71.6 °F - 60.8 °F 69% 30.11 in 10.0 mi SSW 10.4 mph - N/A   Clear
12:55 AM 69.8 °F - 60.8 °F 73% 30.11 in 10.0 mi SW 10.4 mph - N/A   Clear
1:15 AM 69.8 °F - 60.8 °F 73% 30.11 in 10.0 mi SSW 8.1 mph - N/A   Clear
1:35 AM 69.8 °F - 60.8 °F 73% 30.11 in 10.0 mi SW 4.6 mph - N/A   Clear
1:55 AM 68.0 °F - 59.0 °F 73% 30.10 in 10.0 mi SSW 8.1 mph - N/A   Clear
2:15 AM 66.2 °F - 59.0 °F 78% 30.10 in 10.0 mi SSW 9.2 mph - N/A   Clear
2:35 AM 66.2 °F - 59.0 °F 78% 30.09 in 10.0 mi South 9.2 mph - N/A   Clear
2:55 AM 66.2 °F - 60.8 °F 83% 30.09 in 10.0 mi SSW 5.8 mph - N/A   Clear
3:15 AM 66.2 °F - 59.0 °F 78% 30.09 in 10.0 mi SSW 4.6 mph - N/A   Clear
3:35 AM 64.4 °F - 59.0 °F 83% 30.10 in 10.0 mi SSW 5.8 mph - N/A   Clear
3:55 AM 64.4 °F - 59.0 °F 83% 30.10 in 10.0 mi SSW 8.1 mph - N/A   Clear
4:15 AM 64.4 °F - 59.0 °F 83% 30.10 in 10.0 mi SSW 8.1 mph - N/A   Clear
4:35 AM 66.2 °F - 60.8 °F 83% 30.09 in 10.0 mi SSW 8.1 mph - N/A   Clear
4:55 AM 66.2 °F - 60.8 °F 83% 30.09 in 10.0 mi SSW 10.4 mph - N/A   Clear
5:15 AM 66.2 °F - 60.8 °F 83% 30.09 in 10.0 mi SSW 9.2 mph - N/A   Clear
5:35 AM 66.2 °F - 60.8 °F 83% 30.08 in 10.0 mi SSW 10.4 mph - N/A   Clear
5:55 AM 66.2 °F - 60.8 °F 83% 30.08 in 10.0 mi SW 9.2 mph - N/A   Clear
6:15 AM 66.2 °F - 60.8 °F 83% 30.08 in 10.0 mi SSW 8.1 mph - N/A   Clear
6:35 AM 66.2 °F - 60.8 °F 83% 30.09 in 10.0 mi SSW 6.9 mph - N/A   Clear
6:55 AM 64.4 °F - 60.8 °F 88% 30.09 in 10.0 mi SSW 6.9 mph - N/A   Clear
7:15 AM 64.4 °F - 60.8 °F 88% 30.08 in 10.0 mi SW 5.8 mph - N/A   Clear
7:35 AM 66.2 °F - 60.8 °F 83% 30.09 in 10.0 mi SSW 8.1 mph - N/A   Clear
7:55 AM 66.2 °F - 60.8 °F 83% 30.09 in 10.0 mi SW 9.2 mph - N/A   Clear
8:15 AM 68.0 °F - 62.6 °F 83% 30.09 in 10.0 mi SW 12.7 mph - N/A   Clear
8:35 AM 69.8 °F - 62.6 °F 78% 30.08 in 10.0 mi SW 15.0 mph - N/A   Clear
8:55 AM 69.8 °F - 62.6 °F 78% 30.09 in 10.0 mi WSW 15.0 mph - N/A   Clear
9:15 AM 71.6 °F - 62.6 °F 73% 30.09 in 10.0 mi WSW 12.7 mph - N/A   Clear
9:35 AM 71.6 °F - 62.6 °F 73% 30.10 in 10.0 mi WSW 15.0 mph 21.9 mph N/A   Clear
9:55 AM 71.6 °F - 60.8 °F 69% 30.10 in 10.0 mi West 15.0 mph - N/A   Clear
10:15 AM 73.4 °F - 60.8 °F 65% 30.10 in 10.0 mi West 15.0 mph - N/A   Clear
10:35 AM 75.2 °F - 62.6 °F 65% 30.09 in 10.0 mi West 16.1 mph - N/A   Clear
10:55 AM 75.2 °F - 60.8 °F 61% 30.11 in 10.0 mi West 13.8 mph - N/A   Clear
11:15 AM 78.8 °F - 62.6 °F 57% 30.11 in 10.0 mi West 12.7 mph - N/A   Clear
11:35 AM 78.8 °F - 60.8 °F 54% 30.11 in 10.0 mi WNW 11.5 mph - N/A   Clear
11:55 AM 80.6 °F 81.5 °F 60.8 °F 51% 30.12 in 10.0 mi West 11.5 mph 16.1 mph N/A   Clear
12:15 PM 80.6 °F 81.8 °F 62.6 °F 54% 30.11 in 10.0 mi WNW 12.7 mph - N/A   Clear
12:35 PM 82.4 °F 83.4 °F 62.6 °F 51% 30.10 in 10.0 mi West 13.8 mph - N/A   Clear
12:55 PM 84.2 °F 85.0 °F 62.6 °F 48% 30.10 in 10.0 mi WNW 16.1 mph - N/A   Clear
1:15 PM 84.2 °F 85.0 °F 62.6 °F 48% 30.10 in 10.0 mi West 10.4 mph - N/A   Clear
1:35 PM 86.0 °F 87.3 °F 64.4 °F 48% 30.09 in 10.0 mi NW 11.5 mph 17.3 mph N/A   Clear
1:55 PM 87.8 °F 88.5 °F 62.6 °F 43% 30.09 in 10.0 mi WNW 15.0 mph - N/A   Clear
2:15 PM 87.8 °F 88.5 °F 62.6 °F 43% 30.09 in 10.0 mi West 9.2 mph 17.3 mph N/A   Clear
2:35 PM 87.8 °F 88.5 °F 62.6 °F 43% 30.08 in 10.0 mi WNW 9.2 mph - N/A   Clear
2:55 PM 87.8 °F 88.5 °F 62.6 °F 43% 30.08 in 10.0 mi WNW 9.2 mph - N/A   Clear
3:15 PM 89.6 °F 90.1 °F 62.6 °F 40% 30.07 in 10.0 mi NW 9.2 mph - N/A   Clear
3:35 PM 89.6 °F 90.1 °F 62.6 °F 40% 30.06 in 10.0 mi West 3.5 mph - N/A   Clear
3:55 PM 89.6 °F 90.1 °F 62.6 °F 40% 30.06 in 10.0 mi NW 8.1 mph - N/A   Clear
4:15 PM 89.6 °F 89.5 °F 60.8 °F 38% 30.04 in 10.0 mi NW 8.1 mph - N/A   Clear
4:35 PM 89.6 °F 90.1 °F 62.6 °F 40% 30.03 in 10.0 mi North 4.6 mph - N/A   Clear
4:55 PM 89.6 °F 91.1 °F 64.4 °F 43% 30.02 in 10.0 mi NNE 10.4 mph - N/A   Clear
5:15 PM 87.8 °F 88.5 °F 62.6 °F 43% 30.03 in 10.0 mi ENE 3.5 mph - N/A   Clear
5:35 PM 87.8 °F 87.6 °F 60.8 °F 40% 30.03 in 10.0 mi East 6.9 mph - N/A   Clear
5:55 PM 87.8 °F 88.5 °F 62.6 °F 43% 30.02 in 10.0 mi ESE 6.9 mph - N/A   Clear
6:15 PM 87.8 °F 88.5 °F 62.6 °F 43% 30.02 in 10.0 mi East 3.5 mph - N/A   Clear
6:35 PM 86.0 °F 86.6 °F 62.6 °F 45% 30.05 in 10.0 mi South 6.9 mph - N/A   Clear
6:55 PM 78.8 °F - 59.0 °F 51% 30.06 in 10.0 mi SW 21.9 mph 31.1 mph N/A   Mostly Cloudy
7:15 PM 73.4 °F - 55.4 °F 53% 30.07 in 10.0 mi SW 18.4 mph 27.6 mph N/A   Mostly Cloudy
7:35 PM 71.6 °F - 55.4 °F 57% 30.07 in 10.0 mi West 18.4 mph 26.5 mph N/A   Partly Cloudy
7:55 PM 69.8 °F - 57.2 °F 64% 30.07 in 10.0 mi WSW 12.7 mph - N/A   Partly Cloudy
8:15 PM 68.0 °F - 59.0 °F 73% 30.06 in 10.0 mi SW 13.8 mph - N/A   Mostly Cloudy
8:35 PM 68.0 °F - 60.8 °F 78% 30.05 in 10.0 mi West 10.4 mph - N/A   Scattered Clouds
8:55 PM 69.8 °F - 60.8 °F 73% 30.04 in 10.0 mi West 8.1 mph - N/A   Clear
9:15 PM 69.8 °F - 60.8 °F 73% 30.04 in 10.0 mi WSW 5.8 mph - N/A   Partly Cloudy
9:35 PM 69.8 °F - 60.8 °F 73% 30.06 in 10.0 mi SW 9.2 mph - N/A   Partly Cloudy
9:55 PM 71.6 °F - 60.8 °F 69% 30.06 in 10.0 mi WSW 9.2 mph - N/A   Partly Cloudy
10:15 PM 69.8 °F - 59.0 °F 68% 30.08 in 10.0 mi North 3.5 mph - N/A   Partly Cloudy
10:35 PM 69.8 °F - 59.0 °F 68% 30.07 in 10.0 mi Calm Calm - N/A   Clear
10:55 PM 71.6 °F - 60.8 °F 69% 30.09 in 10.0 mi Calm Calm - N/A   Clear